Home > Weather > Lund > Past weeks

Flag for Sweden Past Weather in Lund, Sweden — Yesterday and Last 2 Weeks

Now
63 °F

Passing clouds.


Feels Like: 63 °F
Forecast: 53 / 66 °F
Wind: 5 mph from Southwest

Location: Malmo / Sturup

Current Time: Jun 27, 2016 at 8:03:37 AM

Latest Report: Jun 27, 2016 at 7:20 AM


Visibility: N/A

Pressure: 29.98 "Hg

Humidity: 77%

Dew Point: 55 °F

Location of LundLocation

Past Weather in Lund — Graph

°F

Lund Temperature Yesterday

Maximum temperature yesterday: 70 °F (at 3:50 PM)
Minimum temperature yesterday: 55 °F (at 11:20 PM)
Average temperature yesterday: 65 °F

High & Low Weather Summary for the Past Weeks

 TemperatureHumidityPressure
High82 °F (Jun 25, 3:50 PM)100% (Jun 14, 3:50 PM)30.24 "Hg (Jun 14, 3:50 PM)
Low46 °F (Jun 22, 3:20 AM)39% (Jun 12, 11:50 AM)29.50 "Hg (Jun 15, 12:50 AM)
Average62 °F79%29.87 "Hg
* Reported Jun 12 7:20 AM — Jun 27 7:20 AM, Lund, Weather by CustomWeather, © 2016

Note: Actual official high and low records may vary slightly from our data, if they occured in-between our weather recording intervals... More about our weather records

Advertising

Lund Weather History for the Previous 24 Hours

Scroll right to see more
 ConditionsComfort  
Time TempWeatherWind HumidityBarometerVisibility
7:20 AM
Mon, Jun 27
63 °FPassing clouds.5 mph77%29.98 "HgN/A
6:20 AM55 °FSunny.3 mph94%29.98 "Hg10 mi
5:50 AM52 °FSunny.3 mph100%29.98 "Hg10 mi
5:20 AM50 °FClear.3 mph100%29.98 "Hg10 mi
4:50 AM50 °FClear.3 mph100%29.98 "Hg10 mi
4:20 AM50 °FClear.3 mph100%29.98 "Hg10 mi
3:50 AM52 °FClear.3 mph94%29.95 "Hg10 mi
3:20 AM52 °FClear.5 mph94%29.95 "Hg10 mi
2:50 AM54 °FClear.5 mph94%29.95 "Hg10 mi
2:20 AM57 °FClear.6 mph82%29.95 "Hg10 mi
1:50 AM52 °FClear.5 mph94%29.95 "Hg10 mi
1:20 AM54 °FClear.5 mph94%29.95 "Hg10 mi
12:50 AM52 °FClear.5 mph100%29.98 "Hg10 mi
12:20 AM54 °FPassing clouds.3 mph94%29.98 "HgN/A
11:50 PM
Sun, Jun 26
59 °FClear.5 mph77%29.98 "Hg10 mi
11:20 PM55 °FClear.5 mph88%29.98 "Hg10 mi
10:50 PM61 °FSunny.5 mph72%29.98 "Hg10 mi
10:20 PM61 °FSunny.7 mph72%29.98 "Hg10 mi
9:50 PM61 °FSunny.7 mph72%29.98 "Hg10 mi
9:20 PM64 °FSunny.8 mph60%29.95 "Hg10 mi
8:50 PM64 °FSunny.8 mph64%29.95 "Hg10 mi
8:20 PM66 °FSunny.10 mph56%29.95 "Hg10 mi
7:50 PM68 °FSunny.12 mph53%29.95 "Hg10 mi
7:20 PM68 °FSunny.16 mph49%29.95 "Hg10 mi
6:50 PM68 °FPassing clouds.16 mph56%29.95 "HgN/A
6:20 PM68 °FScattered clouds.15 mph60%29.95 "HgN/A
5:50 PM68 °FScattered clouds.16 mph64%29.95 "HgN/A
5:20 PM68 °FScattered clouds.15 mph60%29.95 "HgN/A
4:50 PM68 °FScattered clouds.15 mph60%29.95 "HgN/A
4:20 PM68 °FScattered clouds.14 mph60%29.95 "HgN/A
3:50 PM70 °FPartly sunny.15 mph64%29.95 "HgN/A
3:20 PM68 °FBroken clouds.15 mph64%29.95 "HgN/A
2:50 PM66 °FPartly sunny.14 mph68%29.95 "HgN/A
2:20 PM66 °FBroken clouds.15 mph68%29.92 "HgN/A
1:50 PM64 °FBroken clouds.14 mph73%29.92 "HgN/A
1:20 PM63 °FBroken clouds.14 mph77%29.92 "HgN/A
12:50 PM63 °FPartly sunny.15 mph77%29.92 "HgN/A
12:20 PM63 °FPartly sunny.15 mph83%29.92 "HgN/A
11:50 AM61 °FBroken clouds.14 mph83%29.92 "HgN/A
11:20 AM61 °FPartly sunny.12 mph83%29.89 "HgN/A
10:50 AM61 °FPartly sunny.15 mph83%29.89 "HgN/A
10:20 AM61 °FMostly cloudy.15 mph88%29.86 "HgN/A
9:50 AM61 °FMostly cloudy.14 mph88%29.83 "HgN/A
9:20 AM61 °FMostly cloudy.16 mph88%29.83 "HgN/A
8:50 AM63 °FMostly cloudy.15 mph88%29.83 "HgN/A
8:20 AM64 °FFog.13 mph94%29.80 "Hg6 mi
Weather by CustomWeather, © 2016

See weather overviewHow to use our weather pages